| time (UTC) | temp F | wind direction | speed MPH | gust MPH | rain 1hr in | rain 24hr in | rain mn in | humidity % | barometer mb |
| 20260504081551 | 59 | 239 | 0.0 | 0.0 | 0.01 | 0.01 | 0.01 | 77 | 1006.7 |
| 20260504050022 | 55 | 229 | 0.0 | 0.0 | 0.00 | 0.00 | 0.00 | 76 | 1007.8 |
| 20260504044534 | 55 | 229 | 0.0 | 0.0 | 0.00 | 0.00 | 0.00 | 76 | 1008.3 |
| 20260504043020 | 55 | 223 | 0.0 | 0.0 | 0.00 | 0.00 | 0.00 | 75 | 1008.4 |
| 20260504041517 | 56 | 162 | 0.0 | 0.0 | 0.00 | 0.00 | 0.00 | 74 | 1008.3 |
| 20260504040017 | 57 | 162 | 0.0 | 0.0 | 0.00 | 0.00 | 0.00 | 73 | 1008.4 |
| 20260504034517 | 57 | 162 | 0.0 | 0.0 | 0.00 | 0.00 | 0.00 | 72 | 1008.6 |
| 20260504033017 | 58 | 225 | 0.0 | 5.0 | 0.00 | 0.00 | 0.00 | 71 | 1009.3 |
| 20260504031514 | 59 | 227 | 0.0 | 0.0 | 0.00 | 0.00 | 0.00 | 68 | 1009.4 |
| 20260504030014 | 59 | 198 | 0.0 | 0.0 | 0.00 | 0.00 | 0.00 | 66 | 1009.6 |
| 20260504024519 | 59 | 78 | 0.0 | 0.0 | 0.00 | 0.00 | 0.00 | 63 | 1009.5 |
| 20260504023013 | 60 | 78 | 0.0 | 0.0 | 0.00 | 0.00 | 0.00 | 64 | 1009.6 |
| 20260504021512 | 60 | 78 | 0.0 | 0.0 | 0.00 | 0.00 | 0.00 | 62 | 1009.4 |
| 20260504020015 | 61 | 304 | 0.0 | 0.0 | 0.00 | 0.00 | 0.00 | 63 | 1009.5 |
| 20260504014514 | 61 | 304 | 0.0 | 0.0 | 0.00 | 0.00 | 0.00 | 61 | 1009.4 |
| 20260504013011 | 61 | 305 | 0.0 | 0.0 | 0.00 | 0.00 | 0.00 | 60 | 1009.2 |
| 20260504011512 | 60 | 306 | 0.0 | 0.0 | 0.00 | 0.00 | 0.00 | 60 | 1009.0 |
| 20260504010010 | 61 | 306 | 0.0 | 0.0 | 0.00 | 0.00 | 0.00 | 58 | 1008.7 |
| 20260504004512 | 62 | 306 | 0.0 | 0.0 | 0.00 | 0.00 | 0.00 | 57 | 1008.8 |
| 20260504003009 | 64 | 217 | 0.0 | 0.0 | 0.00 | 0.00 | 0.00 | 55 | 1008.8 |
| 20260504001508 | 65 | 122 | 0.0 | 0.0 | 0.00 | 0.00 | 0.00 | 53 | 1008.8 |
| 20260504000007 | 65 | 222 | 0.0 | 9.0 | 0.00 | 0.00 | 0.00 | 49 | 1008.8 |
| 20260503234506 | 65 | 194 | 0.0 | 3.0 | 0.00 | 0.00 | 0.00 | 49 | 1009.0 |
| 20260503233006 | 66 | 213 | 0.0 | 14.0 | 0.00 | 0.00 | 0.00 | 49 | 1009.2 |
| 20260503231503 | 66 | 226 | 0.0 | 8.0 | 0.00 | 0.00 | 0.00 | 47 | 1009.5 |
| 20260503230002 | 67 | 235 | 0.0 | 15.0 | 0.00 | 0.00 | 0.00 | 48 | 1009.8 |
| 20260503224501 | 67 | 209 | 0.0 | 9.0 | 0.00 | 0.00 | 0.00 | 47 | 1009.7 |
| 20260503223002 | 67 | 227 | 1.0 | 14.0 | 0.00 | 0.00 | 0.00 | 47 | 1009.8 |
| 20260503221600 | 67 | 210 | 5.0 | 10.0 | 0.00 | 0.00 | 0.00 | 45 | 1009.5 |
| 20260503220111 | 67 | 209 | 0.0 | 10.0 | 0.00 | 0.00 | 0.00 | 48 | 1009.3 |
| 20260503214557 | 66 | 235 | 0.0 | 15.0 | 0.00 | 0.00 | 0.00 | 47 | 1009.4 |
| 20260503213057 | 67 | 178 | 2.0 | 9.0 | 0.00 | 0.00 | 0.00 | 49 | 1009.4 |
| 20260503211607 | 66 | 175 | 0.0 | 14.0 | 0.00 | 0.00 | 0.00 | 50 | 1009.8 |
| 20260503210056 | 66 | 221 | 1.0 | 20.0 | 0.00 | 0.00 | 0.00 | 49 | 1010.0 |
| 20260503204554 | 66 | 196 | 0.0 | 10.0 | 0.00 | 0.00 | 0.00 | 50 | 1010.4 |
| 20260503203046 | 66 | 226 | 0.0 | 11.0 | 0.00 | 0.00 | 0.00 | 51 | 1010.7 |
| 20260503201542 | 65 | 182 | 1.0 | 15.0 | 0.00 | 0.00 | 0.00 | 53 | 1011.1 |
| 20260503200039 | 63 | 205 | 8.0 | 21.0 | 0.00 | 0.00 | 0.00 | 50 | 1011.5 |
| 20260503194536 | 63 | 217 | 1.0 | 22.0 | 0.00 | 0.00 | 0.00 | 52 | 1012.3 |
| 20260503193041 | 64 | 200 | 1.0 | 16.0 | 0.00 | 0.00 | 0.00 | 52 | 1012.6 |
| 20260503191536 | 64 | 184 | 0.0 | 20.0 | 0.00 | 0.00 | 0.00 | 53 | 1013.0 |
| 20260503190031 | 63 | 180 | 1.0 | 20.0 | 0.00 | 0.00 | 0.00 | 53 | 1013.4 |
| 20260503184529 | 63 | 207 | 0.0 | 13.0 | 0.00 | 0.00 | 0.00 | 53 | 1013.7 |
| 20260503183034 | 63 | 199 | 3.0 | 17.0 | 0.00 | 0.00 | 0.00 | 52 | 1013.9 |
| 20260503181540 | 63 | 211 | 4.0 | 17.0 | 0.00 | 0.00 | 0.00 | 51 | 1014.2 |
| 20260503180021 | 62 | 223 | 2.0 | 17.0 | 0.00 | 0.00 | 0.00 | 54 | 1014.6 |
| 20260503174520 | 62 | 186 | 0.0 | 14.0 | 0.00 | 0.00 | 0.00 | 54 | 1014.7 |
| 20260503173037 | 62 | 202 | 1.0 | 12.0 | 0.00 | 0.00 | 0.00 | 53 | 1015.3 |
| 20260503171514 | 61 | 193 | 1.0 | 10.0 | 0.00 | 0.00 | 0.00 | 54 | 1015.8 |
| 20260503100108 | 39 | 322 | 0.0 | 0.0 | 0.00 | 0.00 | 0.00 | 89 | 1017.5 |